Weather in Nainital

India     29°23′34″N   79°27′07″E
temp.,
°C
wind,
m/s
gust,
m/s
humid.,
%
clouds,
%
prec.,
mm/h
press.,
hPa
HPBL,
m
12 april, mon
mon1223:30+16nne11130 0.0 101615
02:30+15ne22190 0.0 101516
05:30+14ene22220 0.0 101620
08:30+23ene11141 0.0 1015573
11:30+27w36103 0.0 10143899
14:30+28wsw461158 0.0 10104215
17:30+26w48133 0.0 10093473
20:30+18n22200 0.0 101414
13 april, tue
tue1323:30+15ne33300 0.0 101637
02:30+14ne32371 0.0 101431
05:30+14ene22383 0.0 101426
08:30+24ne13190 0.0 10141122
11:30+28w371187 0.0 10124635
14:30+29wsw55116 0.0 10094244
17:30+27wsw351225 0.0 10081921
20:30+19ene11189 0.0 101112
14 april, wed
wed1423:30+18e22205 0.0 101217
02:30+16ene222570 0.0 101222
05:30+15ene32294 0.0 101223
08:30+25ne12175 0.0 1012443
11:30+30w35101 0.0 10103806
14:30+31wsw5695 0.0 10064426
17:30+28w57120 0.0 10063400
20:30+20n22190 0.0 101015
15 april, thu
thu1523:30+18nne11244 0.0 101116
02:30+17ne22283 0.0 101019
05:30+16ne22305 0.0 101021
08:30+25nw251533 0.0 10111335
11:30+30w3690 0.0 10094205
14:30+30w58993 0.0 10065163
17:30+27w571261 0.0 10063360
20:30+20nw1120100 0.0 100912
16 april, fri
fri1623:30+19nne1122100 0.0 101017
02:30+18nne21248 0.0 100817
05:30+16ne22271 0.0 101017
08:30+26nnw14160 0.0 10101634
11:30+30w431310 0.0 10094053
14:30+30wsw54125 0.0 10063813
17:30+27w461492 0.0 10062734
20:30+18ene333668 0.1 101145